Hourly Weather Ludwikow

Today, 7 May, Friday

Time Temperature Precipitation Wind Pressure Humidity
00:00 +7°C° 0.6 mm 2 mps 742 mmHg 87%
01:00 +7°C° 0 mm 2 mps 742 mmHg 94%
02:00 +6°C° 1 mm 2 mps 741 mmHg 95%
03:00 +6°C° 1 mm 2 mps 741 mmHg 95%
04:00 +7°C° 1 mm 1 mps 740 mmHg 96%
05:00 +7°C° 0.4 mm 1 mps 740 mmHg 95%
06:00 +7°C° 0.4 mm 1 mps 740 mmHg 95%
07:00 +6°C° 0 mm 2 mps 741 mmHg 94%
08:00 +6°C° 0.1 mm 2 mps 741 mmHg 92%
09:00 +6°C° 0.1 mm 2 mps 741 mmHg 91%
10:00 +7°C° 0.1 mm 2 mps 742 mmHg 90%
11:00 +7°C° 0.1 mm 2 mps 742 mmHg 89%
12:00 +7°C° 0.1 mm 3 mps 742 mmHg 89%
13:00 +7°C° 0.1 mm 3 mps 743 mmHg 88%
14:00 +6°C° 0.1 mm 5 mps 743 mmHg 85%
15:00 +5°C° 0.1 mm 6 mps 743 mmHg 82%
16:00 +6°C° 0.1 mm 8 mps 744 mmHg 78%
17:00 +4°C° 0.1 mm 7 mps 745 mmHg 82%
18:00 +3°C° 0.1 mm 7 mps 745 mmHg 86%
19:00 +2°C° 0.1 mm 6 mps 746 mmHg 90%
20:00 +2°C° 0 mm 5 mps 747 mmHg 90%
21:00 +1°C° 0 mm 5 mps 747 mmHg 91%
22:00 +1°C° 0 mm 5 mps 748 mmHg 91%
23:00 +2°C° 0 mm 5 mps 748 mmHg 89%

Tomorrow, 8 May, Saturday

Time Temperature Precipitation Wind Pressure Humidity
00:00 +2°C° 0 mm 6 mps 749 mmHg 87%
01:00 +2°C° 0 mm 6 mps 749 mmHg 85%
02:00 +2°C° 0 mm 5 mps 750 mmHg 88%
03:00 +1°C° 0 mm 5 mps 750 mmHg 91%
04:00 +1°C° 0 mm 4 mps 750 mmHg 94%
05:00 +2°C° 0 mm 5 mps 751 mmHg 89%
06:00 +3°C° 0 mm 5 mps 751 mmHg 84%
07:00 +3°C° 0 mm 5 mps 752 mmHg 79%
08:00 +5°C° 0 mm 6 mps 752 mmHg 71%
09:00 +7°C° 0 mm 6 mps 752 mmHg 62%
10:00 +9°C° 0 mm 6 mps 752 mmHg 54%
11:00 +9°C° 0 mm 6 mps 752 mmHg 51%
12:00 +10°C° 0 mm 5 mps 752 mmHg 48%
13:00 +12°C° 0 mm 5 mps 752 mmHg 45%
14:00 +12°C° 0 mm 4 mps 752 mmHg 45%
15:00 +12°C° 0 mm 4 mps 752 mmHg 44%
16:00 +12°C° 0 mm 3 mps 752 mmHg 44%
17:00 +11°C° 0 mm 3 mps 752 mmHg 53%
18:00 +10°C° 0 mm 3 mps 752 mmHg 61%
19:00 +8°C° 0 mm 2 mps 752 mmHg 69%
20:00 +8°C° 0 mm 2 mps 752 mmHg 71%
21:00 +7°C° 0 mm 3 mps 752 mmHg 74%
22:00 +5°C° 0 mm 3 mps 752 mmHg 77%
23:00 +5°C° 0 mm 3 mps 752 mmHg 78%

Day after tomorrow, 9 May, Sunday

Time Temperature Precipitation Wind Pressure Humidity
00:00 +5°C° 0 mm 3 mps 752 mmHg 80%
01:00 +4°C° 0 mm 3 mps 752 mmHg 82%
02:00 +4°C° 0 mm 3 mps 752 mmHg 81%
03:00 +4°C° 0 mm 4 mps 752 mmHg 80%
04:00 +4°C° 0 mm 4 mps 751 mmHg 78%
05:00 +5°C° 0 mm 4 mps 751 mmHg 75%
06:00 +7°C° 0 mm 5 mps 751 mmHg 71%
07:00 +9°C° 0 mm 5 mps 751 mmHg 67%
08:00 +11°C° 0 mm 6 mps 751 mmHg 63%
09:00 +14°C° 0 mm 6 mps 751 mmHg 58%
10:00 +15°C° 0 mm 6 mps 750 mmHg 53%
11:00 +17°C° 0 mm 6 mps 750 mmHg 52%
12:00 +19°C° 0 mm 6 mps 750 mmHg 52%
13:00 +20°C° 0 mm 6 mps 750 mmHg 51%
14:00 +20°C° 0 mm 5 mps 750 mmHg 53%
15:00 +20°C° 0 mm 5 mps 749 mmHg 56%
16:00 +20°C° 0 mm 5 mps 749 mmHg 58%
17:00 +17°C° 0 mm 5 mps 749 mmHg 62%
18:00 +16°C° 0 mm 5 mps 749 mmHg 65%
19:00 +14°C° 0 mm 5 mps 749 mmHg 68%
20:00 +14°C° 0 mm 6 mps 749 mmHg 65%
21:00 +13°C° 0 mm 6 mps 749 mmHg 62%
22:00 +13°C° 0 mm 6 mps 749 mmHg 59%
23:00 +11°C° 0 mm 6 mps 749 mmHg 60%

10 May, Monday

Time Temperature Precipitation Wind Pressure Humidity
00:00 +11°C° 0 mm 6 mps 749 mmHg 61%
01:00 +11°C° 0 mm 6 mps 749 mmHg 62%
02:00 +10°C° 0 mm 6 mps 749 mmHg 63%
03:00 +10°C° 0 mm 6 mps 748 mmHg 65%
04:00 +9°C° 0 mm 5 mps 748 mmHg 66%
05:00 +12°C° 0 mm 5 mps 748 mmHg 66%
06:00 +13°C° 0 mm 6 mps 748 mmHg 66%
07:00 +14°C° 0 mm 6 mps 748 mmHg 66%
08:00 +16°C° 0 mm 6 mps 748 mmHg 61%
09:00 +18°C° 0 mm 7 mps 748 mmHg 57%
10:00 +20°C° 0 mm 8 mps 748 mmHg 52%
11:00 +21°C° 0 mm 8 mps 747 mmHg 52%
12:00 +22°C° 0 mm 8 mps 747 mmHg 52%
13:00 +23°C° 0 mm 8 mps 747 mmHg 52%
14:00 +23°C° 0 mm 7 mps 747 mmHg 54%
15:00 +23°C° 0 mm 7 mps 747 mmHg 57%
16:00 +23°C° 0 mm 6 mps 747 mmHg 60%
17:00 +21°C° 0 mm 5 mps 747 mmHg 65%
18:00 +20°C° 0 mm 5 mps 747 mmHg 71%
19:00 +18°C° 0 mm 4 mps 747 mmHg 76%
20:00 +17°C° 0 mm 4 mps 747 mmHg 77%
21:00 +17°C° 0 mm 4 mps 747 mmHg 79%
22:00 +15°C° 0 mm 4 mps 747 mmHg 81%
23:00 +14°C° 0 mm 4 mps 747 mmHg 82%

11 May, Tuesday

Time Temperature Precipitation Wind Pressure Humidity
00:00 +14°C° 0 mm 4 mps 747 mmHg 83%
01:00 +14°C° 0 mm 4 mps 747 mmHg 84%
02:00 +14°C° 0 mm 4 mps 746 mmHg 84%
03:00 +13°C° 0 mm 4 mps 746 mmHg 83%
04:00 +13°C° 0 mm 5 mps 746 mmHg 82%
05:00 +15°C° 0 mm 5 mps 746 mmHg 78%
06:00 +16°C° 0 mm 6 mps 746 mmHg 74%
07:00 +17°C° 0 mm 6 mps 746 mmHg 70%
08:00 +20°C° 0 mm 7 mps 745 mmHg 66%
09:00 +22°C° 0 mm 7 mps 745 mmHg 61%
10:00 +23°C° 0 mm 8 mps 745 mmHg 57%
11:00 +24°C° 0 mm 8 mps 745 mmHg 55%
12:00 +26°C° 0 mm 8 mps 745 mmHg 54%
13:00 +27°C° 0 mm 7 mps 745 mmHg 52%
14:00 +27°C° 0 mm 7 mps 745 mmHg 54%
15:00 +26°C° 0 mm 6 mps 744 mmHg 56%
16:00 +26°C° 0 mm 6 mps 744 mmHg 57%
17:00 +25°C° 0 mm 5 mps 744 mmHg 63%
18:00 +22°C° 0 mm 4 mps 744 mmHg 69%
19:00 +20°C° 0 mm 3 mps 744 mmHg 75%
20:00 +19°C° 0 mm 3 mps 744 mmHg 78%
21:00 +18°C° 0 mm 4 mps 744 mmHg 81%
22:00 +18°C° 0 mm 4 mps 744 mmHg 84%
23:00 +17°C° 0 mm 4 mps 744 mmHg 85%

12 May, Wednesday

Time Temperature Precipitation Wind Pressure Humidity
00:00 +15°C° 0 mm 4 mps 743 mmHg 86%
01:00 +15°C° 0 mm 4 mps 743 mmHg 87%
02:00 +14°C° 0 mm 4 mps 743 mmHg 88%
03:00 +14°C° 0 mm 4 mps 743 mmHg 90%
04:00 +13°C° 0 mm 4 mps 743 mmHg 91%
05:00 +14°C° 0 mm 4 mps 743 mmHg 87%
06:00 +15°C° 0 mm 5 mps 743 mmHg 82%
07:00 +17°C° 0 mm 5 mps 743 mmHg 78%
08:00 +19°C° 0 mm 5 mps 743 mmHg 72%
09:00 +21°C° 0 mm 5 mps 743 mmHg 67%
10:00 +22°C° 0 mm 5 mps 743 mmHg 61%
11:00 +23°C° 0 mm 5 mps 742 mmHg 58%
12:00 +24°C° 0 mm 6 mps 742 mmHg 55%
13:00 +24°C° 0 mm 7 mps 742 mmHg 52%
14:00 +24°C° 0 mm 7 mps 742 mmHg 56%
15:00 +23°C° 0 mm 8 mps 742 mmHg 60%
16:00 +22°C° 0 mm 8 mps 742 mmHg 63%
17:00 +21°C° 0 mm 8 mps 742 mmHg 63%
18:00 +18°C° 0 mm 7 mps 742 mmHg 63%
19:00 +17°C° 0 mm 7 mps 742 mmHg 62%
20:00 +16°C° 0 mm 7 mps 742 mmHg 62%
21:00 +15°C° 0 mm 6 mps 742 mmHg 62%
22:00 +14°C° 0 mm 6 mps 742 mmHg 62%
23:00 +13°C° 0 mm 5 mps 743 mmHg 66%
Show more

We Need Your Consent

Meteoprog and our Service Providers may store and access personal data such as cookies, device identifiers or other similar technologies on your device and process such data to personalise content and ads, as well as provide social media features and to analyse the traffic.

  • Store and/or access information on your device

    Cookies, device identifiers or other information can be stored or accessed on your device for the purposes indicated above.

  • Personalised ads and content, ad and content measurement, audience insights, and products development

    Ads and content can be personalised based on a profile. More data can be added to better personalise ads and content. Ad and content performance can be measured. Insights about the audience who saw the ads and content can be derived. Such data can be used to develop or improve user’s experience, systems and software.

By clicking ‘I Agree’ you will allow the use of indicated cookies, device identifiers, web beacons or other similar technologies. Your settings can be changed in the browser on your device.

For certain purposes, legitimate interests may be relied on, rather than consent. You can read more about this in our Privacy and Cookie Policy.